Fremont, NE

11:17 PM CDT on March 26, 2017 (GMT -0500)
Fremont Municipal

Weather History for KFET - December, 2013

Change the Weather History Date:

Friday, December 6, 2013

  Actual Average Record
Temperature  
Mean Temperature 4 °F -  
Max Temperature 11 °F 36 °F 64 °F (1963)
Min Temperature -3 °F 19 °F -10 °F (1950)
Degree Days  
Heating Degree Days 61    
Moisture  
Dew Point -5 °F    
Average Humidity 68    
Maximum Humidity 83    
Minimum Humidity 50    
Precipitation  
Precipitation 0.00 in - - ()
Sea Level Pressure  
Sea Level Pressure 30.58 in    
Wind  
Wind Speed 10 mph (NW)    
Max Wind Speed 16 mph    
Max Gust Speed 21 mph    
Visibility 10 miles    
Events      
Averages and records for this station are not official NWS values.
T = Trace of Precipitation, MM = Missing Value Source: NWS Daily Summary

Daily Weather History Graph

Daily Weather History Graph

Search for Another Location

Airport or City:

Trip Planner

Search our weather history database for the weather conditions in past years. The results will help you decide how hot, cold, wet, or windy it might be!

Date:

Astronomy

Dec. 06, 2013 Rise Set
Actual Time 7:38 AM CST 4:56 PM CST
Civil Twilight 7:07 AM CST 5:27 PM CST
Nautical Twilight 6:32 AM CST 6:02 PM CST
Astronomical Twilight 5:58 AM CST 6:35 PM CST
Moon 10:42 AM CST (12/6) 9:31 PM CST (12/6)
Length of Visible Light 10h 20m
Length of Day
9h 18m
Waxing Crescent, 19% of the Moon is Illuminated
Dec 6
Waxing Crescent
Dec 9
First Quarter
Dec 17
Full
Dec 25
Last Quarter
Jan 1
New

Hourly Weather History & Observations

Time (CST) Temp. Windchill Dew Point Humidity Pressure Visibility Wind Dir Wind Speed Gust Speed Precip Events Conditions
12:15 AM 6.8 °F -8.6 °F -3.6 °F 62% 30.44 in 10.0 mi NNW 11.5 mph 16.1 mph N/A   Clear
12:35 AM 6.1 °F -7.8 °F -3.6 °F 64% 30.43 in 10.0 mi NNW 9.2 mph - N/A   Clear
5:35 AM -0.6 °F -16.0 °F -5.8 °F 79% 30.50 in 10.0 mi NW 9.2 mph - N/A   Clear
5:55 AM -0.8 °F -16.2 °F -5.8 °F 79% 30.50 in 10.0 mi NW 9.2 mph - N/A   Clear
6:15 AM -1.5 °F -17.1 °F -5.8 °F 82% 30.51 in 10.0 mi WNW 9.2 mph - N/A   Clear
6:35 AM -1.3 °F -15.7 °F -6.2 °F 80% 30.52 in 10.0 mi NW 8.1 mph - N/A   Clear
6:55 AM -2.0 °F -18.7 °F -6.7 °F 80% 30.52 in 10.0 mi WNW 10.4 mph - N/A   Clear
7:15 AM -2.2 °F -18.0 °F -6.9 °F 80% 30.53 in 10.0 mi NW 9.2 mph - N/A   Clear
7:35 AM -2.2 °F -18.0 °F -6.7 °F 81% 30.52 in 10.0 mi WNW 9.2 mph - N/A   Clear
7:55 AM -2.2 °F -18.0 °F -6.7 °F 81% 30.52 in 10.0 mi NW 9.2 mph - N/A   Clear
8:15 AM -1.3 °F -18.7 °F -6.3 °F 79% 30.53 in 10.0 mi NW 11.5 mph - N/A   Clear
8:35 AM -0.4 °F -18.4 °F -6.3 °F 76% 30.54 in 10.0 mi NW 12.7 mph - N/A   Clear
8:55 AM 0.5 °F -16.5 °F -6.0 °F 74% 30.55 in 10.0 mi NW 11.5 mph - N/A   Clear
9:15 AM 1.4 °F -16.9 °F -5.8 °F 72% 30.55 in 10.0 mi NW 13.8 mph - N/A   Clear
9:35 AM 2.3 °F -15.0 °F -5.4 °F 70% 30.55 in 10.0 mi NW 12.7 mph - N/A   Clear
9:55 AM 3.0 °F -16.1 °F -5.4 °F 68% 30.56 in 10.0 mi NW 16.1 mph - N/A   Clear
10:15 AM 4.1 °F -12.7 °F -4.9 °F 66% 30.56 in 10.0 mi NNW 12.7 mph - N/A   Clear
10:35 AM 5.0 °F -13.6 °F -5.1 °F 63% 30.56 in 10.0 mi NW 16.1 mph 20.7 mph N/A   Clear
10:55 AM 6.6 °F -8.8 °F -4.4 °F 61% 30.57 in 10.0 mi NNW 11.5 mph - N/A   Clear
11:15 AM 7.2 °F -9.6 °F -4.4 °F 59% 30.57 in 10.0 mi NNW 13.8 mph 18.4 mph N/A   Clear
11:35 AM 7.7 °F -7.4 °F -4.4 °F 58% 30.57 in 10.0 mi NNW 11.5 mph - N/A   Clear
11:55 AM 8.2 °F -6.8 °F -4.0 °F 58% 30.56 in 10.0 mi NW 11.5 mph 17.3 mph N/A   Clear
12:15 PM 9.1 °F -4.0 °F -3.6 °F 56% 30.55 in 10.0 mi NNW 9.2 mph - N/A   Clear
12:35 PM 10.4 °F -5.4 °F -3.3 °F 54% 30.55 in 10.0 mi NW 13.8 mph 18.4 mph N/A   Clear
12:55 PM 10.9 °F -2.6 °F -3.1 °F 53% 30.55 in 10.0 mi NNW 10.4 mph 17.3 mph N/A   Clear
1:15 PM 11.1 °F -2.4 °F -3.8 °F 51% 30.55 in 10.0 mi NNW 10.4 mph 16.1 mph N/A   Clear
1:35 PM 10.8 °F -5.0 °F -3.6 °F 52% 30.55 in 10.0 mi NW 13.8 mph - N/A   Clear
1:55 PM 10.9 °F -3.4 °F -3.6 °F 52% 30.55 in 10.0 mi NNW 11.5 mph - N/A   Clear
2:15 PM 11.7 °F 0.0 °F -3.5 °F 51% 30.54 in 10.0 mi North 8.1 mph 12.7 mph N/A   Clear
2:35 PM 11.7 °F -3.8 °F -3.8 °F 50% 30.54 in 10.0 mi NW 13.8 mph - N/A   Clear
2:55 PM 11.7 °F -0.9 °F -3.3 °F 51% 30.54 in 10.0 mi North 9.2 mph - N/A   Clear
3:15 PM 11.1 °F -3.9 °F -3.1 °F 53% 30.54 in 10.0 mi NW 12.7 mph - N/A   Clear
3:35 PM 10.8 °F -2.8 °F -2.9 °F 54% 30.55 in 10.0 mi NNW 10.4 mph - N/A   Clear
3:55 PM 10.8 °F -2.8 °F -3.1 °F 54% 30.55 in 10.0 mi NNW 10.4 mph - N/A   Clear
4:15 PM 10.0 °F -2.9 °F -2.9 °F 56% 30.56 in 10.0 mi NNW 9.2 mph - N/A   Clear
4:35 PM 9.5 °F -5.9 °F -3.1 °F 57% 30.57 in 10.0 mi NNW 12.7 mph - N/A   Clear
5:55 PM 5.9 °F -5.8 °F -3.5 °F 65% 30.60 in 10.0 mi NNW 6.9 mph - N/A   Clear
6:15 PM 5.4 °F -5.2 °F -3.5 °F 67% 30.60 in 7.0 mi NNW 5.8 mph - N/A   Clear
6:35 PM 4.8 °F -7.1 °F -3.5 °F 69% 30.61 in 10.0 mi NNW 6.9 mph - N/A   Clear
6:55 PM 4.8 °F -4.3 °F -3.3 °F 69% 30.62 in 10.0 mi NNW 4.6 mph - N/A   Clear
7:15 PM 4.1 °F -5.1 °F -3.5 °F 71% 30.63 in 10.0 mi NNW 4.6 mph - N/A   Clear
7:35 PM 3.2 °F -6.2 °F -4.0 °F 72% 30.64 in 10.0 mi NNW 4.6 mph - N/A   Clear
7:55 PM 2.7 °F -6.8 °F -4.0 °F 74% 30.65 in 10.0 mi NNW 4.6 mph - N/A   Clear
8:15 PM 1.9 °F -9.2 °F -4.0 °F 76% 30.66 in 10.0 mi NW 5.8 mph - N/A   Clear
8:35 PM 0.1 °F -9.7 °F -4.4 °F 81% 30.66 in 10.0 mi NW 4.6 mph - N/A   Clear
8:55 PM 0.9 °F -6.9 °F -4.5 °F 78% 30.67 in 10.0 mi NW 3.5 mph - N/A   Clear
9:15 PM 0.3 °F - -4.9 °F 79% 30.67 in 10.0 mi Calm Calm - N/A   Clear
9:35 PM -0.6 °F -12.2 °F -5.1 °F 81% 30.68 in 10.0 mi NW 5.8 mph - N/A   Clear
9:55 PM 0.3 °F -13.8 °F -4.5 °F 80% 30.68 in 10.0 mi NW 8.1 mph - N/A   Clear
10:15 PM -1.1 °F -11.2 °F -5.8 °F 81% 30.68 in 10.0 mi NW 4.6 mph - N/A   Clear
10:35 PM -0.6 °F - -5.4 °F 80% 30.69 in 10.0 mi Calm Calm - N/A   Clear
10:55 PM -2.2 °F -14.2 °F -6.7 °F 81% 30.69 in 10.0 mi WNW 5.8 mph - N/A   Clear
11:15 PM -2.0 °F -12.2 °F -6.5 °F 81% 30.69 in 10.0 mi NW 4.6 mph - N/A   Clear
11:35 PM -3.1 °F -13.5 °F -7.1 °F 83% 30.69 in 10.0 mi WNW 4.6 mph - N/A   Clear
11:55 PM -3.3 °F -11.6 °F -7.6 °F 82% 30.69 in 10.0 mi WNW 3.5 mph - N/A   Clear